Regional Weather Roundup
Issued by NWS

Home | Current Version | Previous Version | Text Only | Print | Product List | Glossary Off
Versions: 1 2 3 4 5 6 7 8 9 10 11 12 13 14 15 16 17 18 19 20 21 22 23 24 25 26 27 28 29 30 31 32 33 34 35 36 37 38 39 40 41 42 43 44 45 46 47 48 49 50

000
ASUS43 KLSX 230057
RWRMO

WEATHER SUMMARY FOR MISSOURI
NATIONAL WEATHER SERVICE SPRINGFIELD MO
700 PM CST THU FEB 22 2018

NOTE: "FAIR" INDICATES FEW OR NO CLOUDS BELOW 12,000 FEET WITH NO
       SIGNIFICANT WEATHER AND/OR OBSTRUCTIONS TO VISIBILITY.
       CURRENT SKY AND/OR WEATHER CONDITIONS ARE NOT AVAILABLE FOR
       CHILLICOTHE AND FARMINGTON.

MOZ001>031-035>038-043-044-053-054-230200-
...NORTHERN AND WESTERN MISSOURI...

CITY           SKY/WX    TMP DP  RH WIND       PRES   REMARKS
KANSAS CTY INT FRZ RAIN  32  31  96 SE8       30.18S VSB 1/2 WCI  25
LEE`S SUMMIT   CLOUDY    33  33 100 E6        30.17F FOG     WCI  28
ST JOSEPH      CLOUDY    32  32 100 SE6       30.19F FOG     WCI  26
CHILLICOTHE      N/A     34  33  96 E7        30.21S WCI  28

$$
MOZ066>068-077>081-088>096-101>105-230200-
...SOUTHWEST MISSOURI...

CITY           SKY/WX    TMP DP  RH WIND       PRES   REMARKS
SPRINGFIELD    LGT RAIN  42  41  96 SE9       30.17S
JOPLIN         CLOUDY    42  42 100 S3        30.18S
BRANSON        LGT RAIN  39  39 100 NW8       30.25R FOG

$$
MOZ032>034-039>042-045>050-055>058-069>072-230200-
...CENTRAL MISSOURI...

CITY           SKY/WX    TMP DP  RH WIND       PRES   REMARKS
COLUMBIA       NOT AVBL
JEFFERSON CITY CLOUDY    38  37  97 E9        30.25F FOG
ROLLA          LGT RAIN  39  39 100 E9        30.24F FOG
SEDALIA        LGT RAIN  37  37 100 E12       30.21F FOG     WCI  29
WARRENSBURG    CLOUDY    34  34 100 E6        30.19F WCI  29

$$
MOZ051-052-059>065-230200-
...EAST CENTRAL MISSOURI...

CITY           SKY/WX    TMP DP  RH WIND       PRES   REMARKS
ST LOUIS INTL  CLOUDY    43  43 100 S3        30.31S FOG

$$
MOZ072>076-082>087-097>100-106>115-230200-
...SOUTH CENTRAL AND SOUTHEAST MISSOURI...

CITY           SKY/WX    TMP DP  RH WIND       PRES   REMARKS
CAPE GIRARDEAU NOT AVBL
POPLAR BLUFF   LGT RAIN  45  43  93 CALM      30.31R
WEST PLAINS    CLOUDY    41  40  96 E8        30.23S

$$



USA.gov is the U.S. government's official web portal to all federal, state and local government web resources and services.